Torna al catalogo

STARLINK-37443

AttivoComunicazioniSSO
NORAD 68824·PAYLOAD·🇺🇸 United States

Lanciato Apr 23, 2026 da Vandenberg Space Force Base

Loading…

Prossimi Passaggi (prossime 24 ore)

TLE

AggiornatoSource: CelesTrak SupGP

Epoca: Sep 14, 2026, 16:05 UTC

1 68824C 26089Y   26257.67062500 -.00071198  00000+0 -22109-2 0  2571
2 68824  97.2847 103.5775 0001820  87.5632 124.8582 15.33463289    12

Traccia STARLINK-37443 in tempo reale con AllMySat

Download on the App Store